User: anonymous   Login
Location: Montauk Point State Park
(41.0718°N, 71.8593°W)
Time: 21:44:49
(UTC-04:00)
Language:

Cosmos 1844 - Orbit

View from above orbital plane
View from above orbital plane
View from above satellite
View from above satellite

Ground track
Ground track

The orbit data is extracted from the following two-line orbital elements,

1 17973U 87041A   17177.68159136 +.00000295 +00000-0 +17954-3 0  9994
2 17973 070.8984 253.5574 0029392 113.2303 247.1919 14.14046440554289
Epoch (UTC): 26 June 2017 16:21:29
Eccentricity: 0.0029392
inclination: 70.8984°
perigee height: 824 km
apogee height: 867 km
right ascension of ascending node: 253.5574°
argument of perigee: 113.2303°
revolutions per day: 14.14046440
mean anomaly at epoch: 247.1919°
orbit number at epoch: 55428

The dashed part of the orbit path shows where the satellite is in the earth's shadow,  

DLR